N179AL SCGE-SCIE

Flight info

Callsign N179AL
Flight time 0h 23m
Altitude 5500
Route VFR DCT
Aircraft PC12/L-S/C

Departure

Time 2026-04-20 18:56
Airport María Dolores Airport (SCGE)

Arrival

Time 2026-04-20 19:19
Airport Carriel Sur International Airport (SCIE)
Time Latitude Longitude Altitude Speed Heading
2026-04-20 18:49 -37.40165 -72.42297 379 ft 0 kts 185°
2026-04-20 18:53 -37.40162 -72.42296 379 ft 0 kts 185°
2026-04-20 18:53 -37.40202 -72.42303 379 ft 16 kts 208°
2026-04-20 18:53 -37.40222 -72.42338 379 ft 1 kts 326°
2026-04-20 18:54 -37.40201 -72.42377 379 ft 11 kts 279°
2026-04-20 18:54 -37.40198 -72.42406 379 ft 10 kts 277°
2026-04-20 18:54 -37.40163 -72.42448 379 ft 16 kts 334°
2026-04-20 18:54 -37.40036 -72.42519 381 ft 11 kts 329°
2026-04-20 18:55 -37.40045 -72.42530 381 ft 14 kts 184°
2026-04-20 18:55 -37.40412 -72.42576 379 ft 88 kts 184°
2026-04-20 18:55 -37.41173 -72.42686 534 ft 132 kts 187°
2026-04-20 18:55 -37.42204 -72.42851 955 ft 165 kts 187°
2026-04-20 18:56 -37.43438 -72.43019 1359 ft 188 kts 185°
2026-04-20 18:56 -37.44761 -72.43156 1921 ft 194 kts 184°
2026-04-20 18:56 -37.46127 -72.43287 2493 ft 198 kts 184°
2026-04-20 18:56 -37.47508 -72.43423 3104 ft 199 kts 185°
2026-04-20 18:57 -37.48843 -72.43923 3642 ft 204 kts 209°
2026-04-20 18:57 -37.49877 -72.45133 4110 ft 211 kts 237°
2026-04-20 18:57 -37.50266 -72.46950 4270 ft 227 kts 271°
2026-04-20 18:57 -37.49816 -72.48837 4594 ft 226 kts 299°
2026-04-20 18:58 -37.48978 -72.50525 4857 ft 229 kts 302°
2026-04-20 18:58 -37.48126 -72.52235 5037 ft 234 kts 302°
2026-04-20 18:58 -37.47244 -72.53971 4935 ft 236 kts 302°
2026-04-20 18:58 -37.46395 -72.55727 4750 ft 234 kts 302°
2026-04-20 18:59 -37.45540 -72.57445 4731 ft 227 kts 302°
2026-04-20 18:59 -37.44694 -72.59119 4811 ft 226 kts 303°
2026-04-20 18:59 -37.43820 -72.60747 4884 ft 225 kts 305°
2026-04-20 18:59 -37.42925 -72.62336 4716 ft 227 kts 306°
2026-04-20 19:00 -37.41968 -72.63954 4501 ft 230 kts 307°
2026-04-20 19:00 -37.41029 -72.65566 4580 ft 221 kts 306°
2026-04-20 19:00 -37.40165 -72.66998 5359 ft 198 kts 313°
2026-04-20 19:00 -37.38985 -72.67984 5533 ft 213 kts 338°
2026-04-20 19:01 -37.37532 -72.68362 5798 ft 212 kts 358°
2026-04-20 19:01 -37.36110 -72.68158 6361 ft 202 kts 14°
2026-04-20 19:01 -37.34798 -72.67537 6781 ft 207 kts 26°
2026-04-20 19:01 -37.33519 -72.66602 6806 ft 222 kts 33°
2026-04-20 19:02 -37.32173 -72.65643 6596 ft 231 kts 28°
2026-04-20 19:02 -37.30878 -72.64780 6214 ft 200 kts 25°
2026-04-20 19:02 -37.29490 -72.64085 5671 ft 217 kts 19°
2026-04-20 19:02 -37.27992 -72.63695 5312 ft 225 kts
2026-04-20 19:03 -37.26466 -72.63764 4656 ft 219 kts 357°
2026-04-20 19:03 -37.24924 -72.63868 4495 ft 222 kts 356°
2026-04-20 19:03 -37.23377 -72.64163 4524 ft 231 kts 346°
2026-04-20 19:03 -37.21838 -72.64779 4516 ft 237 kts 339°
2026-04-20 19:04 -37.20303 -72.65613 4445 ft 237 kts 336°
2026-04-20 19:04 -37.18819 -72.66445 4485 ft 238 kts 335°
2026-04-20 19:04 -37.17346 -72.67419 4411 ft 241 kts 327°
2026-04-20 19:04 -37.16033 -72.68687 4537 ft 236 kts 320°
2026-04-20 19:05 -37.14795 -72.70002 4565 ft 232 kts 319°
2026-04-20 19:05 -37.13573 -72.71344 4225 ft 230 kts 318°
2026-04-20 19:05 -37.12405 -72.72660 4390 ft 221 kts 318°
2026-04-20 19:05 -37.11263 -72.73964 4550 ft 225 kts 317°
2026-04-20 19:06 -37.10126 -72.75275 4634 ft 228 kts 317°
2026-04-20 19:06 -37.08956 -72.76623 4689 ft 232 kts 317°
2026-04-20 19:06 -37.07786 -72.78011 4532 ft 235 kts 316°
2026-04-20 19:06 -37.06610 -72.79460 4559 ft 238 kts 315°
2026-04-20 19:07 -37.05438 -72.80938 4538 ft 240 kts 314°
2026-04-20 19:07 -37.04256 -72.82414 4537 ft 239 kts 317°
2026-04-20 19:07 -37.03007 -72.83785 4610 ft 236 kts 319°
2026-04-20 19:07 -37.01763 -72.85138 4604 ft 240 kts 319°
2026-04-20 19:08 -37.00516 -72.86529 4524 ft 241 kts 318°
2026-04-20 19:08 -36.98117 -72.89254 4829 ft 231 kts 317°
2026-04-20 19:08 -36.96937 -72.90609 4493 ft 224 kts 317°
2026-04-20 19:09 -36.95747 -72.91990 4188 ft 235 kts 317°
2026-04-20 19:09 -36.94576 -72.93370 4348 ft 227 kts 316°
2026-04-20 19:09 -36.93431 -72.94750 4377 ft 227 kts 316°
2026-04-20 19:09 -36.92318 -72.96104 4568 ft 225 kts 316°
2026-04-20 19:10 -36.91179 -72.97470 4615 ft 229 kts 316°
2026-04-20 19:10 -36.90053 -72.98786 4731 ft 200 kts 317°
2026-04-20 19:10 -36.89074 -72.99905 4309 ft 179 kts 317°
2026-04-20 19:10 -36.88142 -73.00991 3837 ft 194 kts 316°
2026-04-20 19:11 -36.87154 -73.02172 3415 ft 198 kts 316°
2026-04-20 19:11 -36.86230 -73.03303 2876 ft 177 kts 315°
2026-04-20 19:11 -36.85418 -73.04296 2531 ft 142 kts 315°
2026-04-20 19:11 -36.84769 -73.05058 2152 ft 124 kts 317°
2026-04-20 19:12 -36.84148 -73.05768 1935 ft 118 kts 317°
2026-04-20 19:12 -36.83580 -73.06445 1740 ft 109 kts 315°
2026-04-20 19:12 -36.82984 -73.07023 1465 ft 114 kts 328°
2026-04-20 19:12 -36.82323 -73.07550 1289 ft 112 kts 324°
2026-04-20 19:13 -36.81642 -73.08030 1053 ft 114 kts 341°
2026-04-20 19:13 -36.80897 -73.08238 989 ft 109 kts 359°
2026-04-20 19:13 -36.80115 -73.07976 696 ft 124 kts 21°
2026-04-20 19:13 -36.79348 -73.07519 442 ft 117 kts 24°
2026-04-20 19:14 -36.78629 -73.07119 212 ft 114 kts 21°
2026-04-20 19:14 -36.77895 -73.06694 68 ft 109 kts 24°
2026-04-20 19:14 -36.77272 -73.06326 63 ft 107 kts 34°
2026-04-20 19:14 -36.76511 -73.05907 235 ft 131 kts 22°
2026-04-20 19:15 -36.75604 -73.05379 628 ft 156 kts 25°
2026-04-20 19:15 -36.74581 -73.04775 1378 ft 164 kts 23°
2026-04-20 19:15 -36.73475 -73.04344 2003 ft 176 kts
2026-04-20 19:15 -36.72206 -73.04765 2192 ft 199 kts 328°
2026-04-20 19:16 -36.71291 -73.05907 2487 ft 166 kts 302°
2026-04-20 19:16 -36.70985 -73.07361 2554 ft 171 kts 268°
2026-04-20 19:16 -36.71396 -73.08614 2584 ft 154 kts 229°
2026-04-20 19:16 -36.72347 -73.09249 2290 ft 158 kts 198°
2026-04-20 19:17 -36.73423 -73.09568 2125 ft 158 kts 191°
2026-04-20 19:17 -36.74503 -73.09801 2044 ft 164 kts 191°
2026-04-20 19:17 -36.75626 -73.10022 2100 ft 164 kts 189°
2026-04-20 19:17 -36.76802 -73.10212 1850 ft 174 kts 187°
2026-04-20 19:18 -36.78024 -73.10362 1567 ft 173 kts 184°
2026-04-20 19:18 -36.79046 -73.10136 1377 ft 139 kts 146°
2026-04-20 19:18 -36.79462 -73.09150 1120 ft 130 kts 93°
2026-04-20 19:18 -36.79544 -73.08035 770 ft 131 kts 92°
2026-04-20 19:19 -36.79159 -73.07219 525 ft 121 kts 11°
2026-04-20 19:19 -36.78302 -73.06915 176 ft 127 kts 21°
2026-04-20 19:19 -36.77535 -73.06483 63 ft 111 kts 24°
2026-04-20 19:19 -36.77003 -73.06176 58 ft 31 kts 25°
2026-04-20 19:20 -36.76970 -73.06144 60 ft 12 kts 64°
2026-04-20 19:20 -36.76958 -73.06097 60 ft 11 kts 90°
2026-04-20 19:20 -36.76993 -73.05989 57 ft 0 kts 129°
2026-04-20 19:20 -36.77001 -73.05958 57 ft 13 kts 88°
2026-04-20 19:21 -36.76970 -73.05880 57 ft 0 kts 134°
2026-04-20 19:21 -36.76992 -73.05819 57 ft 21 kts 118°
2026-04-20 19:21 -36.77004 -73.05805 57 ft 0 kts 300°
2026-04-20 19:21 -36.77006 -73.05800 57 ft 0 kts 300°